Wind_Speed
12 13 13 13 13 12 13 14 16 18 19 18 17 17 17 17 16 16 15 14 13 14 14 13 13 12 11 10 10 10 10 10 9 9 10 10 10 11 11 11 12 12
12 13 13 12 10 10 11 13 16 18 17 15 15 16 16 16 16 15 14 12 12 13 13 14 14 13 12 12 12 11 11 11 10 10 11 11 11 11 11 11 11 11
13 13 12 11 9 7 8 11 14 15 14 13 15 16 16 16 16 15 13 11 11 12 13 13 14 14 14 14 14 14 13 13 13 13 14 14 13 13 13 12 12 12
14 13 12 11 9 9 9 10 12 12 12 13 14 16 16 16 15 13 11 9 9 10 12 12 13 14 15 15 15 15 16 16 16 16 16 16 15 15 15 14 14 14
14 14 13 12 10 11 11 12 12 10 10 12 13 15 15 14 12 11 9 8 7 7 9 10 12 12 13 13 13 14 15 15 16 16 16 16 16 16 16 15 15 15
16 15 14 13 12 12 13 13 12 10 9 10 11 13 13 12 10 10 9 8 6 7 8 9 10 11 11 11 11 12 12 13 13 14 14 14 15 15 15 15 15 15
17 16 16 15 14 15 16 15 14 13 11 10 10 11 12 11 11 11 11 10 9 9 9 10 11 11 11 11 11 10 11 11 11 12 12 13 13 14 14 14 14 14
17 16 16 16 16 17 18 17 16 15 14 12 12 12 12 12 13 14 14 14 14 13 12 12 12 12 11 11 10 10 10 10 11 11 12 13 14 14 13 13 13 13
16 16 17 18 18 18 18 18 17 17 16 15 15 14 13 13 13 14 15 15 16 15 14 14 14 13 12 12 12 11 11 12 12 13 14 15 15 14 14 13 13 12
15 16 18 18 18 17 17 17 18 19 19 18 17 16 15 14 14 13 13 14 14 15 15 15 15 14 13 13 13 12 12 13 14 15 16 16 15 15 14 13 13 13
15 16 17 16 15 16 16 16 17 18 18 18 17 17 16 16 14 12 12 12 13 15 15 15 15 15 14 14 13 13 13 14 15 16 16 16 16 15 14 14 13 13
18 16 16 15 15 15 16 16 16 16 17 17 16 16 16 15 14 13 12 12 13 15 16 16 16 15 15 14 14 14 15 16 16 17 17 17 16 16 15 14 14 14
21 19 18 18 17 17 16 17 18 18 18 17 16 16 15 14 14 14 13 13 14 15 16 16 16 16 16 16 15 15 16 17 18 18 18 18 17 17 16 15 14 14
22 22 22 21 20 18 16 17 19 19 19 17 16 15 14 14 14 14 14 15 15 16 17 18 18 18 18 17 17 17 17 18 18 19 19 19 18 18 17 16 15 15
22 23 23 21 20 20 19 17 17 17 18 17 16 15 15 14 14 14 15 16 17 18 18 19 20 20 20 19 19 18 18 18 19 19 20 20 19 19 18 17 16 16
22 23 23 20 18 18 18 17 17 16 17 17 16 16 16 16 16 16 17 18 19 19 20 20 20 21 20 20 20 19 19 20 20 20 20 20 20 20 19 18 18 18
22 23 23 20 17 17 18 18 18 17 17 17 16 16 17 18 19 19 20 20 21 21 21 21 21 21 21 21 21 21 20 20 21 21 21 21 21 21 21 21 21 21
17 16 16 16 16 17 19 19 19 18 18 17 16 16 17 19 20 21 22 23 24 24 25 24 24 23 23 23 23 22 22 22 23 23 23 23 23 24 24 23 24 24
14 12 13 14 16 17 17 18 18 17 17 16 16 16 17 19 20 22 23 24 25 26 27 27 27 26 25 25 25 25 24 25 25 25 25 26 26 26 26 26 27 27
14 15 16 16 17 17 18 18 17 17 17 18 17 17 18 20 21 23 24 24 25 26 28 29 29 28 27 27 27 27 27 27 27 27 27 28 28 29 29 29 30 30
18 19 19 18 18 19 18 17 17 19 20 19 19 19 20 21 21 22 23 24 24 25 27 29 30 29 29 28 28 28 28 29 29 29 30 31 31 32 32 33 33 34
22 21 19 18 19 20 20 19 20 21 21 20 21 21 22 22 22 22 23 24 25 25 26 28 29 29 29 29 29 29 29 30 31 32 33 34 34 35 35 36 36 37
22 20 18 18 20 20 20 21 21 20 20 21 22 23 23 23 23 23 24 26 27 27 27 28 30 30 30 30 30 30 31 32 34 35 36 37 38 39 39 39 39 39
17 18 19 20 20 20 20 21 20 21 22 23 24 24 23 23 23 24 25 27 29 30 30 30 31 31 32 32 33 34 35 35 36 38 39 40 42 42 43 43 43 42
19 19 20 21 22 23 24 22 22 23 24 25 25 25 23 23 24 26 27 29 31 33 34 35 35 36 36 37 37 38 38 38 39 40 41 42 44 45 46 46 46 46
27 26 25 23 23 23 24 25 26 27 27 27 27 27 26 26 26 28 30 32 34 37 38 38 39 40 40 40 40 41 41 41 41 42 43 44 46 48 49 50 50 50
Wind_Direction
243 245 246 247 247 244 237 233 235 240 244 243 237 232 231 230 228 225 223 224 224 226 227 226 225 225 223 221 222 226 230 233 233 233 234 233 233 236 239 242 245 246
247 247 246 243 243 244 239 235 236 241 243 238 230 227 225 227 230 230 229 228 228 228 228 227 225 225 223 219 218 221 225 231 235 237 237 236 236 236 238 241 244 248
242 242 240 236 235 245 247 242 241 243 240 231 227 228 227 227 229 233 236 237 235 233 231 229 228 228 228 228 229 232 236 240 243 245 246 246 246 244 243 245 248 251
237 235 233 234 242 254 258 253 251 249 242 235 234 236 236 233 229 227 226 227 231 232 229 227 228 230 232 235 238 241 244 247 249 250 251 251 251 248 247 247 249 252
239 236 233 237 247 256 259 260 260 256 247 244 244 244 242 235 228 223 215 209 214 226 230 230 229 231 233 236 240 244 247 249 250 251 252 252 251 249 247 248 249 252
238 237 238 242 247 249 250 253 256 252 245 245 249 248 245 238 234 233 228 222 223 232 240 240 236 233 234 235 238 241 245 248 250 251 252 252 252 251 251 251 252 254
234 233 234 237 241 240 240 241 243 242 241 244 248 249 248 248 249 249 250 250 251 252 251 246 239 234 233 233 235 239 244 249 253 255 256 257 256 256 255 256 256 258
232 229 229 230 231 232 233 233 233 235 240 245 248 249 249 253 257 260 262 263 263 262 256 247 242 238 237 236 236 240 248 254 259 262 263 264 263 263 263 263 264 264
235 232 231 230 229 231 234 234 233 234 237 242 247 250 251 254 258 261 263 264 264 261 254 247 243 241 240 241 240 243 248 253 257 260 262 262 261 262 264 265 266 267
243 236 232 231 231 232 232 232 234 235 236 239 243 249 254 258 261 262 262 260 256 252 247 243 243 242 241 242 242 245 248 253 258 261 261 260 258 258 259 261 263 265
240 236 234 235 238 240 238 235 235 235 236 238 240 245 251 257 262 263 262 256 248 243 240 240 241 241 241 242 243 246 251 257 261 262 261 260 258 257 258 259 262 264
232 232 232 235 243 247 246 243 240 240 242 242 242 245 250 256 262 265 263 254 243 239 238 237 238 239 239 241 243 248 254 259 261 261 259 258 257 256 257 258 260 262
233 234 236 240 246 248 246 245 244 243 245 246 245 247 252 256 260 262 262 255 245 240 240 238 237 237 239 242 245 250 255 259 260 259 258 256 254 254 255 257 259 261
237 238 240 244 246 244 243 244 242 241 243 246 247 249 253 256 258 260 260 255 248 243 242 242 241 240 242 245 249 252 255 257 257 257 256 255 254 253 253 254 256 258
241 238 240 248 252 246 239 238 240 239 239 242 248 254 258 259 259 260 258 252 246 242 242 244 244 245 247 250 253 255 255 255 255 254 253 252 251 250 250 251 252 254
241 238 241 250 254 245 234 234 241 242 237 239 247 255 259 261 261 261 259 253 246 241 242 244 246 249 252 255 257 258 257 256 255 254 252 250 249 248 248 249 249 251
244 241 240 243 250 248 239 240 246 245 237 236 244 252 258 261 262 263 263 260 254 246 242 243 245 248 252 254 255 255 255 255 254 253 251 250 249 249 249 249 250 250
236 237 236 241 252 254 249 247 247 243 234 231 241 255 262 265 265 265 264 263 260 255 249 246 246 248 250 251 252 253 254 255 254 252 250 249 250 251 252 253 254 255
219 236 246 251 252 250 249 250 248 240 234 236 249 262 267 269 269 269 268 265 262 259 256 254 253 253 254 254 255 256 258 258 256 253 252 251 252 253 254 256 258 259
234 254 260 259 255 248 244 244 242 239 241 248 259 264 265 266 268 270 272 270 265 260 258 256 255 255 255 255 255 257 259 258 255 254 254 255 255 256 258 260 261 262
249 258 259 256 253 246 240 239 241 245 249 253 258 261 262 263 264 267 270 271 268 264 260 257 255 254 254 254 255 257 257 257 256 257 258 259 259 260 262 263 264 263
254 257 255 251 248 243 241 243 245 247 249 251 254 257 260 262 263 263 265 267 268 266 263 258 254 252 252 253 256 259 261 262 262 262 262 261 262 262 264 264 265 264
255 256 248 242 241 241 241 243 248 250 249 249 252 256 260 260 260 261 262 263 264 264 262 257 252 249 249 250 255 260 265 267 267 266 265 264 264 264 265 266 266 266
248 248 247 244 242 241 240 242 247 251 251 250 251 254 256 258 259 260 260 261 261 260 260 256 251 248 248 251 255 260 264 266 267 267 267 267 266 266 266 266 267 267
237 233 243 251 252 248 244 240 237 239 245 253 255 255 257 260 262 260 260 259 258 257 256 255 253 252 253 255 258 261 263 264 266 267 268 268 268 268 268 268 268 268
246 239 237 242 247 249 246 242 239 236 238 244 250 252 252 255 259 262 264 263 260 256 254 254 255 256 256 258 260 261 263 265 266 267 268 269 270 270 270 270 269 269
Height
5773 5774 5774 5775 5776 5776 5776 5777 5777 5777 5778 5779 5779 5780 5781 5782 5783 5784 5784 5785 5786 5786 5787 5788 5789 5789 5790 5790 5791 5791 5791 5792 5793 5793 5794 5795 5796 5796 5796 5797 5797 5797
5771 5772 5773 5774 5774 5775 5775 5775 5775 5776 5776 5777 5778 5778 5780 5781 5781 5782 5783 5784 5785 5785 5786 5787 5788 5788 5789 5790 5790 5791 5791 5791 5792 5793 5793 5794 5794 5795 5795 5795 5795 5795
5770 5771 5772 5773 5774 5774 5775 5775 5775 5775 5776 5776 5777 5777 5778 5779 5780 5781 5782 5783 5783 5784 5785 5785 5786 5787 5788 5789 5789 5790 5790 5791 5791 5791 5792 5792 5793 5793 5793 5793 5793 5794
5768 5770 5771 5772 5773 5774 5774 5774 5774 5775 5775 5776 5776 5776 5777 5778 5779 5780 5781 5781 5782 5782 5783 5784 5784 5785 5786 5787 5788 5789 5789 5789 5790 5790 5790 5790 5791 5791 5791 5792 5792 5792
5767 5769 5770 5771 5772 5773 5773 5773 5773 5774 5774 5775 5775 5775 5776 5777 5778 5779 5779 5780 5780 5781 5781 5782 5783 5784 5785 5785 5786 5787 5787 5788 5788 5788 5788 5788 5789 5789 5789 5790 5790 5790
5764 5766 5767 5769 5770 5770 5770 5771 5771 5772 5773 5773 5774 5774 5775 5775 5776 5777 5778 5778 5779 5780 5780 5781 5781 5782 5783 5784 5785 5785 5786 5786 5786 5786 5787 5787 5787 5787 5788 5788 5788 5788
5761 5762 5763 5765 5766 5767 5767 5768 5769 5770 5771 5772 5772 5773 5774 5774 5775 5776 5777 5777 5778 5778 5779 5780 5780 5781 5782 5783 5783 5784 5784 5785 5785 5785 5785 5785 5786 5786 5786 5786 5786 5786
5758 5759 5760 5761 5762 5763 5764 5765 5766 5767 5768 5769 5770 5771 5772 5773 5774 5774 5775 5776 5776 5777 5778 5778 5779 5780 5780 5781 5782 5782 5783 5783 5784 5784 5784 5784 5784 5784 5784 5785 5785 5785
5756 5757 5758 5758 5760 5761 5762 5763 5764 5765 5766 5767 5768 5769 5770 5771 5772 5772 5773 5774 5774 5775 5775 5776 5777 5778 5779 5780 5780 5781 5781 5782 5782 5783 5783 5783 5783 5783 5783 5783 5784 5784
5755 5755 5756 5757 5758 5759 5761 5761 5762 5763 5763 5764 5765 5766 5767 5768 5769 5770 5771 5771 5772 5772 5773 5774 5775 5776 5777 5778 5779 5779 5780 5780 5781 5781 5781 5781 5782 5782 5782 5782 5782 5782
5753 5753 5754 5755 5756 5757 5759 5760 5760 5761 5762 5762 5763 5763 5764 5765 5766 5767 5768 5769 5770 5770 5771 5772 5773 5774 5775 5775 5776 5777 5778 5778 5779 5779 5779 5780 5780 5781 5781 5781 5781 5781
5750 5751 5752 5753 5754 5755 5756 5758 5759 5759 5760 5760 5760 5761 5762 5763 5764 5764 5765 5766 5767 5768 5769 5769 5770 5771 5772 5773 5774 5774 5775 5776 5777 5777 5777 5778 5778 5779 5779 5779 5779 5779
5747 5749 5750 5750 5751 5752 5754 5755 5756 5756 5757 5757 5758 5758 5759 5760 5761 5762 5763 5764 5765 5766 5766 5767 5768 5768 5769 5770 5771 5772 5773 5773 5774 5775 5775 5776 5776 5776 5776 5777 5777 5777
5745 5746 5747 5747 5748 5749 5751 5752 5752 5753 5754 5754 5755 5756 5757 5757 5758 5759 5760 5761 5762 5763 5764 5765 5765 5766 5767 5768 5768 5769 5770 5771 5772 5773 5773 5773 5774 5774 5774 5774 5774 5774
5742 5743 5744 5745 5745 5746 5747 5748 5749 5750 5751 5752 5752 5753 5754 5755 5756 5757 5757 5758 5759 5760 5761 5762 5763 5764 5765 5766 5766 5767 5768 5768 5769 5770 5770 5771 5771 5771 5771 5771 5771 5772
5740 5740 5741 5741 5742 5742 5744 5745 5746 5747 5748 5749 5750 5750 5751 5752 5753 5754 5755 5755 5756 5757 5759 5760 5761 5762 5763 5763 5764 5765 5765 5766 5766 5767 5767 5768 5768 5768 5768 5769 5769 5769
5736 5737 5738 5739 5739 5740 5742 5743 5743 5744 5745 5746 5747 5748 5749 5749 5750 5751 5752 5753 5753 5754 5756 5757 5758 5759 5759 5760 5761 5762 5762 5763 5763 5764 5764 5765 5765 5765 5765 5766 5766 5766
5734 5735 5736 5738 5738 5739 5740 5740 5741 5741 5742 5743 5744 5745 5746 5747 5747 5748 5749 5750 5751 5752 5752 5753 5754 5755 5756 5757 5757 5758 5759 5760 5760 5761 5761 5761 5762 5762 5762 5762 5762 5762
5732 5733 5734 5735 5736 5736 5737 5738 5738 5739 5740 5741 5742 5742 5743 5744 5745 5745 5746 5747 5748 5749 5750 5751 5751 5752 5753 5753 5754 5755 5756 5756 5757 5757 5757 5758 5758 5758 5758 5758 5758 5758
5729 5730 5731 5732 5732 5733 5734 5735 5735 5736 5738 5738 5739 5740 5740 5741 5742 5743 5743 5744 5745 5746 5747 5747 5748 5749 5749 5750 5750 5751 5752 5752 5753 5753 5753 5754 5754 5754 5754 5754 5754 5754
5726 5727 5728 5729 5730 5730 5731 5732 5733 5733 5734 5735 5736 5737 5737 5738 5739 5739 5740 5741 5742 5742 5743 5744 5745 5745 5746 5746 5747 5747 5748 5749 5749 5749 5749 5750 5750 5750 5750 5750 5750 5750
5723 5724 5725 5726 5726 5727 5727 5728 5729 5730 5731 5732 5733 5733 5734 5735 5736 5736 5737 5737 5738 5739 5739 5740 5741 5742 5743 5743 5744 5744 5745 5745 5745 5746 5746 5746 5746 5745 5745 5745 5745 5745
5720 5721 5721 5722 5722 5723 5724 5725 5726 5727 5728 5729 5730 5730 5731 5732 5732 5733 5733 5734 5734 5735 5736 5736 5737 5738 5738 5739 5740 5740 5741 5741 5741 5741 5741 5741 5741 5740 5740 5740 5740 5739
5716 5717 5718 5718 5720 5721 5722 5723 5724 5725 5725 5725 5726 5727 5727 5728 5728 5729 5730 5730 5731 5731 5732 5732 5733 5733 5734 5734 5735 5735 5736 5736 5737 5737 5737 5736 5736 5735 5735 5734 5734 5734
5714 5714 5715 5715 5716 5718 5719 5720 5721 5722 5722 5721 5722 5723 5724 5724 5724 5725 5725 5726 5727 5727 5727 5728 5728 5728 5729 5729 5729 5730 5730 5731 5731 5731 5731 5731 5731 5730 5729 5729 5728 5728
5710 5711 5712 5712 5712 5714 5715 5716 5717 5717 5718 5718 5717 5718 5719 5719 5720 5720 5720 5720 5721 5721 5722 5722 5723 5723 5724 5724 5724 5724 5724 5725 5725 5726 5726 5726 5725 5724 5724 5723 5723 5722